Location: Bullenkuhlen
(53.7689°N, 9.7495°E)
Time: 05:21:19
(UTC+00:00)

Cosmos 540 Rocket - Pass Details

Date: 09 April 2020
Orbit: 741 x 753 km, 74.1° (Epoch: 01 June)

Event Time Altitude Azimuth Distance (km) Brightness Sun altitude
Rises 19:44:03 0° 335° (NNW) 3,217 7.8 -13.1°
Reaches altitude 10° 19:46:33 10° 342° (NNW) 2,287 6.8 -13.4°
Maximum altitude 19:51:29 43° 54° (NE) 1,051 4.1 -14.0°
Enters shadow 19:54:29 22° 115° (ESE) 1,619 4.6 -14.4°
